RH
29 33 39 39 41 42 45 44 49 48 31 26 44 46 58 58 55 52 53 55 60 68 65 62 70 90 91 88 85 89 86 84 75 82 82 72 73 70 59 57 58 62 64
42 44 44 45 48 49 49 51 49 48 48 33 25 40 44 52 53 51 56 58 62 64 65 66 75 88 90 93 89 90 94 92 86 88 82 91 78 71 67 63 65 74 78
48 47 48 49 50 52 53 52 51 50 50 52 43 27 42 46 53 63 68 64 62 65 71 72 81 90 87 93 91 88 90 94 94 75 64 77 69 57 58 70 66 76 88
42 43 47 50 52 53 54 55 55 54 52 52 51 50 31 43 50 58 65 64 68 69 69 77 82 87 88 90 92 84 84 87 94 93 69 56 50 66 70 66 72 76 82
44 45 46 48 47 50 54 59 59 58 58 58 57 55 46 40 41 52 60 66 78 81 79 82 82 87 84 90 90 90 88 86 82 88 84 72 62 64 79 67 64 73 72
46 46 45 47 48 48 55 60 63 62 64 68 66 65 63 48 43 46 56 61 79 89 86 86 85 86 87 89 91 89 87 86 86 84 67 68 71 74 79 78 66 64 62
53 55 54 52 56 59 63 66 67 72 71 76 75 74 69 60 54 47 52 61 83 89 91 89 89 88 86 87 90 91 88 88 90 81 72 61 62 59 59 67 71 71 65
57 60 64 63 63 67 70 73 77 81 78 80 81 79 71 55 50 49 46 54 77 80 83 88 88 87 84 88 88 92 92 91 92 85 80 67 66 59 58 64 68 91 86
64 66 65 66 66 76 75 81 87 83 84 85 87 88 77 68 56 56 58 61 73 78 85 89 90 90 88 89 92 94 95 94 93 86 86 80 69 64 67 67 67 79 89
76 78 77 82 74 82 83 82 90 85 86 88 89 88 87 85 61 74 78 73 72 71 76 86 86 91 91 92 94 96 92 92 93 87 91 89 83 83 78 81 82 83 84
89 98 98 92 95 91 91 90 90 89 89 88 91 93 93 78 67 81 82 74 76 74 81 82 89 90 93 92 92 93 92 93 88 91 93 91 88 92 93 92 89 87 88
81 96 99 98 99 97 97 97 95 94 88 87 90 94 93 95 88 84 82 84 80 84 85 89 93 92 92 90 92 96 94 91 95 96 97 95 90 91 80 80 89 86 84
73 83 91 95 97 93 97 95 91 96 86 85 89 93 94 94 96 96 97 97 97 98 98 96 96 95 94 93 97 97 97 96 96 93 89 82 74 76 80 85 88 88 85
82 82 84 91 92 94 95 97 90 89 88 86 87 93 94 94 94 94 95 96 96 97 96 94 92 91 90 90 91 94 96 94 91 89 80 73 74 76 80 83 88 89 91
76 81 87 92 92 92 90 87 87 92 97 88 88 92 91 89 91 93 93 93 93 92 89 88 88 88 87 89 92 87 88 88 81 76 71 73 87 96 95 90 88 87 94
83 82 85 86 88 87 92 87 90 93 87 94 96 88 95 91 90 93 92 91 91 90 90 90 90 92 86 96 97 96 93 90 89 89 87 82 88 88 94 98 100 99 94
85 83 86 86 88 92 91 91 92 94 92 94 96 95 95 99 98 95 98 95 95 93 94 93 92 94 93 96 96 96 91 92 93 93 91 87 78 88 84 89 98 99 98
80 78 78 80 86 75 76 68 63 72 88 89 94 95 95 95 97 96 96 98 97 96 93 95 95 95 92 94 95 93 90 92 93 92 91 92 92 92 94 89 91 96 96
87 90 84 82 82 82 78 71 72 70 78 84 88 92 96 97 96 97 98 98 96 95 96 94 95 93 92 91 90 86 88 90 92 88 89 88 91 95 95 90 98 100 100
87 87 84 79 87 90 78 90 88 87 91 92 91 86 86 92 95 98 99 99 99 98 95 95 95 91 93 93 93 90 88 92 89 88 89 89 90 91 93 95 97 100 100
85 83 85 90 90 89 82 88 91 95 92 91 91 91 91 91 93 94 97 94 94 94 96 98 97 97 97 96 94 93 92 94 90 92 95 95 90 89 89 91 97 98 98
80 82 86 90 89 90 88 89 93 87 86 89 91 90 91 91 92 92 95 91 94 94 99 98 90 87 93 88 87 86 88 93 95 96 96 97 90 88 89 92 90 90 89
79 76 84 86 88 87 88 90 90 84 82 86 88 87 87 89 89 90 91 87 88 87 88 87 89 90 88 91 84 83 83 87 90 90 94 94 93 87 90 90 88 90 92
72 68 67 78 86 85 82 83 82 81 79 81 80 80 82 82 84 82 82 85 88 88 89 89 90 89 88 90 90 92 94 85 87 88 92 90 91 91 94 94 94 94 95
66 64 64 63 67 68 71 72 72 70 70 69 74 72 66 72 70 75 73 72 84 81 81 84 86 91 92 94 84 87 88 87 85 89 89 87 84 83 83 85 88 88 88
38 38 40 43 43 45 53 48 50 54 60 63 56 61 60 61 59 60 64 66 68 69 72 73 77 80 77 77 75 75 75 74 74 80 85 88 88 85 83 83 83 85 87
Wind_Speed
16 15 14 14 15 15 16 15 16 12 10 11 11 12 12 13 14 14 19 19 17 19 18 13 14 12 12 12 12 8 11 8 8 7 6 7 7 10 11 9 9 12 12
14 14 15 15 15 16 16 16 16 15 13 10 11 12 12 14 15 14 16 17 19 19 18 17 15 14 11 12 14 13 7 6 10 6 5 5 8 10 12 11 11 13 9
16 17 17 16 15 17 17 17 18 17 15 16 12 13 13 13 14 13 11 15 21 21 19 19 14 13 12 11 13 14 15 9 8 14 8 6 8 6 9 13 12 11 8
17 16 18 18 17 17 17 17 18 18 16 17 15 18 16 16 14 14 14 15 20 19 21 18 17 15 12 13 13 13 14 11 9 8 12 13 5 6 4 5 8 10 11
18 18 18 19 20 17 16 16 18 19 18 18 18 15 18 15 13 13 18 19 16 17 18 18 18 16 14 14 13 14 15 12 11 10 7 13 11 10 5 9 6 6 9
19 18 19 18 17 18 18 18 19 18 19 17 19 21 22 22 16 16 14 14 13 12 18 18 16 16 15 15 13 14 16 14 11 10 13 11 11 11 8 9 12 12 8
18 20 20 20 19 19 20 18 19 20 19 19 18 19 24 25 23 19 15 15 11 11 14 17 17 14 15 15 13 13 14 15 13 14 12 11 11 8 11 11 10 11 9
17 18 20 20 20 20 19 19 19 19 19 18 19 18 21 16 18 18 14 13 10 11 15 17 16 17 18 15 15 11 11 13 12 17 13 12 10 12 12 10 11 5 8
19 20 20 20 20 20 21 20 18 18 19 19 17 16 16 21 18 20 14 10 11 10 13 14 14 15 16 16 15 11 13 12 13 16 14 12 10 11 10 10 10 9 9
20 20 19 20 19 18 18 20 17 18 19 19 14 14 15 16 17 11 10 11 12 15 16 15 17 14 15 15 15 12 12 12 10 11 12 11 9 9 9 9 9 10 11
18 17 17 19 18 18 18 17 16 18 17 15 13 12 11 12 13 11 10 12 11 13 13 15 14 14 13 14 14 12 11 13 13 11 10 12 10 7 8 8 9 10 9
18 17 18 18 18 18 19 17 17 16 15 14 13 13 13 15 5 8 10 6 8 7 9 11 11 11 11 12 13 12 9 12 10 10 10 11 7 12 14 12 12 12 12
19 17 18 17 17 17 17 16 16 15 15 15 14 15 16 16 15 8 5 5 6 5 5 6 5 6 6 7 4 6 7 7 6 6 8 11 12 13 11 11 11 10 9
17 16 16 16 16 15 16 16 18 18 17 18 19 19 19 17 15 15 15 15 12 10 12 14 15 14 13 11 9 6 5 4 3 4 7 9 11 13 14 12 12 12 12
18 19 19 17 17 17 17 18 18 19 20 18 20 20 17 18 18 18 17 15 17 15 14 17 17 14 14 10 8 4 3 1 3 5 5 6 9 11 10 8 12 13 12
18 20 19 20 19 21 19 19 19 20 19 21 20 20 17 19 19 19 18 18 18 18 18 18 16 14 11 13 12 4 6 9 9 8 10 10 11 10 14 13 13 16 16
17 17 18 18 20 19 18 18 18 17 19 20 20 18 20 19 17 18 18 20 18 16 17 16 15 15 13 19 15 13 12 11 11 11 11 9 9 11 13 13 7 8 9
17 18 17 18 19 20 20 19 19 20 20 20 20 20 20 20 18 21 19 19 13 18 17 17 15 16 14 24 19 17 13 11 12 12 13 11 12 12 12 9 6 7 9
13 12 14 15 17 19 19 20 21 22 21 21 21 20 19 19 18 21 19 17 15 16 19 18 17 19 17 26 21 14 12 11 12 12 15 14 13 20 14 5 4 5 6
12 13 14 14 16 17 17 16 18 19 20 19 18 19 19 18 19 18 13 13 14 15 10 17 15 22 16 29 28 17 8 11 8 9 11 23 18 22 20 10 7 7 9
13 12 13 14 15 14 15 17 17 18 16 15 16 17 18 17 17 16 15 14 13 15 15 14 13 15 18 20 28 26 11 8 7 8 7 9 21 22 21 20 12 10 7
12 14 12 12 13 15 13 15 17 14 14 14 15 17 17 14 14 17 15 16 15 15 14 13 12 12 13 23 22 25 21 15 9 9 7 9 18 23 23 15 23 20 11
9 10 11 12 13 15 14 15 15 13 13 13 15 15 15 16 15 16 16 13 14 13 13 12 12 11 12 12 22 21 20 17 11 9 12 17 19 19 15 24 22 14 9
10 10 12 13 13 13 14 14 13 11 12 14 14 12 13 14 15 11 11 13 13 12 12 11 12 11 11 12 12 11 10 12 10 10 9 10 10 14 12 12 13 9 9
8 9 10 12 13 14 14 13 13 13 13 13 13 13 12 13 11 12 13 12 14 15 12 12 10 12 11 12 17 15 11 10 9 7 8 9 10 10 10 10 11 10 9
9 10 11 12 12 13 14 15 15 14 13 12 11 11 10 10 10 10 8 18 19 22 23 22 17 10 19 21 18 18 21 17 15 9 10 10 10 10 10 10 9 10 10
Wind_Direction
352 352 343 332 327 325 321 322 317 313 292 257 232 228 220 223 219 220 219 209 200 203 206 207 205 188 193 200 193 185 194 203 203 186 220 229 226 242 243 250 245 233 226
342 343 337 332 331 326 322 324 316 316 307 284 262 234 227 219 229 222 217 213 207 202 205 204 206 192 189 199 193 186 179 180 183 182 186 207 223 232 235 238 234 230 231
336 334 330 327 327 325 324 320 316 311 302 297 285 267 232 230 217 225 217 210 210 207 205 201 195 190 189 193 197 196 187 186 191 207 189 206 227 215 209 224 233 232 217
337 332 328 326 329 326 322 318 314 310 304 296 281 263 255 226 220 213 214 216 214 213 206 204 195 191 191 195 199 198 198 191 190 200 228 242 272 191 202 211 238 235 227
336 333 328 325 320 326 325 319 314 308 306 303 287 271 257 246 221 214 216 215 212 210 205 200 199 195 195 199 192 193 198 201 194 196 193 225 223 230 249 261 208 229 236
336 335 331 327 324 327 330 326 318 314 311 304 288 276 262 253 229 218 211 211 209 202 203 199 200 200 197 195 192 195 199 201 203 194 216 205 207 220 224 242 253 249 228
342 338 334 333 333 330 329 327 324 314 311 304 290 275 269 251 241 227 213 209 202 202 203 194 193 200 197 194 193 197 200 202 200 208 210 216 222 225 220 230 243 247 242
344 340 341 336 334 331 329 328 318 313 313 304 294 282 269 251 238 229 223 215 194 205 206 202 194 196 196 191 191 193 200 199 206 211 213 218 217 224 230 229 242 233 236
348 346 344 340 339 337 333 330 323 320 312 303 291 283 267 258 227 228 221 213 200 196 199 196 194 194 194 192 189 189 195 198 200 216 212 217 224 228 230 229 226 229 245
348 346 345 340 341 340 331 331 325 322 308 302 297 290 281 272 223 216 218 211 206 201 199 191 194 194 197 190 184 185 195 200 204 209 209 212 222 224 228 222 226 230 240
349 347 341 341 342 340 336 331 334 319 318 312 311 317 315 268 209 197 199 215 207 205 194 196 187 192 191 190 187 182 194 202 203 205 205 215 210 216 215 220 223 228 231
358 350 343 346 342 347 342 340 334 324 329 331 340 357 359 8 189 200 203 218 203 177 177 173 175 176 184 188 188 179 181 192 197 199 204 210 207 226 231 227 225 229 228
1 358 348 351 345 348 343 339 335 339 351 356 3 19 21 21 18 24 89 113 127 116 122 129 156 143 125 150 163 150 170 187 186 206 221 236 240 245 247 245 236 232 240
2 0 359 354 351 349 349 348 351 357 358 13 19 27 26 19 22 25 36 42 49 63 67 65 66 60 56 42 35 53 87 113 186 216 243 253 256 259 260 259 260 253 242
3 4 1 357 358 359 1 1 3 3 14 16 26 22 31 30 30 33 34 41 51 56 61 62 54 52 44 28 13 28 67 48 255 235 275 297 337 318 323 308 281 255 241
4 3 4 3 3 5 4 3 9 14 12 21 28 19 27 35 35 36 35 42 46 48 52 54 52 42 42 7 23 9 85 55 42 19 1 345 318 349 321 299 292 265 265
6 5 7 6 5 8 7 14 14 12 21 24 27 24 29 33 30 44 40 41 39 49 52 49 48 47 31 27 37 51 64 60 50 35 10 348 350 338 327 313 325 17 13
8 9 7 9 10 14 14 22 25 25 26 25 28 26 29 33 33 42 39 43 33 46 43 46 43 47 26 33 35 53 65 62 54 47 25 10 355 350 328 331 341 29 31
14 11 10 16 14 15 19 22 27 28 25 26 25 24 28 32 35 42 33 36 34 42 37 41 34 41 31 32 36 50 54 56 46 39 35 22 15 4 358 23 35 32 25
22 17 17 23 20 15 19 23 26 25 24 21 22 25 30 31 36 34 33 38 41 49 43 49 42 38 35 34 35 36 46 55 40 33 34 30 28 26 29 39 30 44 9
23 17 21 27 21 15 22 30 25 24 20 22 25 29 30 31 33 36 32 31 37 43 41 43 36 34 35 31 35 37 34 34 38 32 22 32 32 39 40 48 40 34 30
30 24 21 24 19 19 18 27 28 14 16 24 29 32 26 31 29 32 32 33 33 37 37 38 38 33 32 33 32 38 41 35 44 31 23 29 33 45 44 45 49 42 38
37 31 28 22 22 23 22 27 17 14 21 27 37 31 36 30 31 33 30 29 30 29 30 26 26 26 24 23 19 25 32 34 45 39 35 37 33 31 37 44 45 41 42
40 33 33 33 28 23 25 26 17 12 28 35 34 41 37 42 38 35 39 34 29 29 25 25 20 16 21 19 14 12 12 25 28 25 32 40 43 43 38 36 34 37 42
52 43 40 37 34 27 25 25 24 18 31 36 33 33 37 39 42 60 41 41 41 32 29 24 26 18 18 17 17 18 17 13 10 18 33 34 32 34 35 41 35 37 41
50 48 42 38 32 33 27 23 22 26 27 34 36 32 33 32 35 32 49 63 51 45 40 32 33 27 24 15 16 22 24 19 16 37 35 33 32 30 27 28 31 31 28